Delta Virtual Airport Information Service

Jeddah King Abdulaziz International Airport

ICAO: OEJN Country: Saudi Arabia
Latitude: 21.6796 Longitude: 39.1565
Latest Arrival : SVA871 (RPLL-OEJN) Latest Departure : BAW132 (2) (OEJN-EGLL)


WX CaptureLIVE
Data provided by noaa.gov | Fetched at 03:22:13

METAR : OEJN 030900Z 28004KT CAVOK 33/08 Q1014 NOSIG

TAF : OEJN 030500Z 0306/0412 30012KT 9999 FEW040 BECMG 0318/0320 01005KT 7000 NSC BECMG 0406/0408 22010KT


Runway Data for OEJN
Data provided by openaviationdata.com

Runway ID Mag Var Hdg Length Elevation Surface ILS Freq ILS Id ILS Slope
16L 2 157° 12143 ft 48 ft Asphalt 108.5 IDFJ 3
16R 2 157° 12506 ft 48 ft Concrete 109.3 IJDD 3
16C 2 157° 10859 ft 48 ft Concrete 109.7 IJDC 3
34L 2 337° 12506 ft 48 ft Concrete 109.1 IJDL 3
34R 2 337° 12143 ft 48 ft Asphalt 108.3 IEAL 3
34C 2 337° 10859 ft 48 ft Concrete 109.5 IJDW 3

Jeddah King Abdulaziz International Airport, Saudi Arabia
Use only for reference purposes



Not for navigational purposes.